Delta Virtual Airport Information Service

Prague Vaclav Havel Airport

ICAO: LKPR Country: Czech Republic
Latitude: 50.1008 Longitude: 14.26
Latest Arrival : DAC7438 (KPHL-LKPR) Latest Departure : UAE140 (LKPR-OMDB)


WX CaptureLIVE
Data provided by noaa.gov | Fetched at 15:59:40

METAR : LKPR 292030Z 25004KT CAVOK 11/08 Q1017 NOSIG

TAF : LKPR 291700Z 2918/0100 27006KT 9999 SCT033 TEMPO 3000/3006 4000 BR SCT003 PROB30 TEMPO 3001/3006 2000 BR BKN003 BECMG 3007/3010 34006KT CAVOK BECMG 3022/0100 5000 BR NSC


Runway Data for LKPR
Data provided by openaviationdata.com

Runway ID Mag Var Hdg Length Elevation Surface ILS Freq ILS Id ILS Slope
6 25 39° 12165 ft 1247 ft Asphalt 111.15 PH 3
12 25 101° 10642 ft 1247 ft Asphalt 109.95 PA 3
24 25 219° 12165 ft 1247 ft Asphalt 109.1 PR 3
30 25 281° 10642 ft 1247 ft Asphalt 109.5 PG 3

Prague Vaclav Havel Airport, Czech Republic
Use only for reference purposes



Not for navigational purposes.